Time,TemperatureF,DewpointF,PressureIn,WindDirection,WindDirectionDegrees,WindSpeedMPH,WindSpeedGustMPH,Humidity,HourlyPrecipIn,Conditions,Clouds,dailyrainin,SoftwareType,DateUTC
2013-09-10 00:02:00,73.6,60.2,29.81,NNE,19,5.0,6.0,63,0.00,,,0.00,Wunderground v.1.15,2013-09-10 05:02:00,
2013-09-10 00:07:00,73.7,60.3,29.81,NNE,13,5.0,9.0,63,0.00,,,0.00,Wunderground v.1.15,2013-09-10 05:07:00,
2013-09-10 00:13:00,73.6,60.2,29.80,NNE,22,7.0,11.0,63,0.00,,,0.00,Wunderground v.1.15,2013-09-10 05:13:00,
2013-09-10 00:19:00,73.5,60.1,29.81,North,5,8.0,11.0,63,0.00,,,0.00,Wunderground v.1.15,2013-09-10 05:19:00,
2013-09-10 00:24:00,73.5,60.1,29.80,NNE,12,8.0,10.0,63,0.00,,,0.00,Wunderground v.1.15,2013-09-10 05:24:00,
2013-09-10 00:30:00,73.5,60.1,29.80,NE,41,7.0,7.0,63,0.00,,,0.00,Wunderground v.1.15,2013-09-10 05:30:00,
2013-09-10 00:35:00,73.7,59.9,29.79,NE,36,6.0,8.0,62,0.00,,,0.00,Wunderground v.1.15,2013-09-10 05:35:00,
2013-09-10 00:41:00,73.9,60.1,29.79,NE,47,6.0,6.0,62,0.00,,,0.00,Wunderground v.1.15,2013-09-10 05:41:00,
2013-09-10 00:46:00,73.9,60.1,29.79,NE,38,4.0,6.0,62,0.00,,,0.00,Wunderground v.1.15,2013-09-10 05:46:00,
2013-09-10 00:52:00,73.9,60.1,29.80,NE,50,4.0,4.0,62,0.00,,,0.00,Wunderground v.1.15,2013-09-10 05:52:00,
2013-09-10 00:57:00,73.8,60.4,29.80,ENE,71,4.0,10.0,63,0.00,,,0.00,Wunderground v.1.15,2013-09-10 05:57:00,
2013-09-10 01:03:00,73.6,60.2,29.80,NE,45,3.0,4.0,63,0.00,,,0.00,Wunderground v.1.15,2013-09-10 06:03:00,
2013-09-10 01:08:00,73.6,60.2,29.80,East,92,2.0,4.0,63,0.00,,,0.00,Wunderground v.1.15,2013-09-10 06:08:00,
2013-09-10 01:14:00,73.3,60.4,29.80,East,92,2.0,3.0,64,0.00,,,0.00,Wunderground v.1.15,2013-09-10 06:14:00,
2013-09-10 01:19:00,72.8,60.3,29.80,East,93,2.0,3.0,65,0.00,,,0.00,Wunderground v.1.15,2013-09-10 06:19:00,
2013-09-10 01:24:00,72.3,60.3,29.80,East,91,2.0,6.0,66,0.00,,,0.00,Wunderground v.1.15,2013-09-10 06:24:00,
2013-09-10 01:30:00,72.0,60.0,29.80,East,91,2.0,2.0,66,0.00,,,0.00,Wunderground v.1.15,2013-09-10 06:30:00,
2013-09-10 01:35:00,71.9,60.3,29.80,East,91,1.0,3.0,67,0.00,,,0.00,Wunderground v.1.15,2013-09-10 06:35:00,
2013-09-10 01:40:00,71.7,60.2,29.80,East,91,2.0,2.0,67,0.00,,,0.00,Wunderground v.1.15,2013-09-10 06:40:00,
2013-09-10 01:46:00,71.7,60.2,29.80,East,91,2.0,3.0,67,0.00,,,0.00,Wunderground v.1.15,2013-09-10 06:46:00,
2013-09-10 01:51:00,71.6,60.1,29.80,East,91,2.0,3.0,67,0.00,,,0.00,Wunderground v.1.15,2013-09-10 06:51:00,
2013-09-10 01:57:00,71.7,60.2,29.79,ENE,66,3.0,6.0,67,0.00,,,0.00,Wunderground v.1.15,2013-09-10 06:57:00,
2013-09-10 02:02:00,71.6,60.1,29.79,ENE,69,4.0,4.0,67,0.00,,,0.00,Wunderground v.1.15,2013-09-10 07:02:00,
2013-09-10 02:07:00,71.5,60.0,29.79,ENE,70,3.0,4.0,67,0.00,,,0.00,Wunderground v.1.15,2013-09-10 07:07:00,
2013-09-10 02:13:00,71.3,59.8,29.80,ENE,63,3.0,3.0,67,0.00,,,0.00,Wunderground v.1.15,2013-09-10 07:13:00,
2013-09-10 02:18:00,71.4,59.9,29.80,NE,53,4.0,7.0,67,0.00,,,0.00,Wunderground v.1.15,2013-09-10 07:18:00,
2013-09-10 02:24:00,71.4,59.9,29.81,NE,45,4.0,5.0,67,0.00,,,0.00,Wunderground v.1.15,2013-09-10 07:24:00,
2013-09-10 02:29:00,71.3,60.2,29.82,NE,45,3.0,5.0,68,0.00,,,0.00,Wunderground v.1.15,2013-09-10 07:29:00,
2013-09-10 02:35:00,71.0,60.3,29.83,NE,44,2.0,3.0,69,0.00,,,0.00,Wunderground v.1.15,2013-09-10 07:35:00,
2013-09-10 02:40:00,70.4,60.5,29.82,NNE,16,3.0,3.0,71,0.00,,,0.00,Wunderground v.1.15,2013-09-10 07:40:00,
2013-09-10 02:46:00,69.7,60.3,29.83,NNE,13,2.0,3.0,72,0.00,,,0.00,Wunderground v.1.15,2013-09-10 07:46:00,
2013-09-10 02:51:00,69.2,60.2,29.83,NNW,339,2.0,6.0,73,0.00,,,0.00,Wunderground v.1.15,2013-09-10 07:51:00,
2013-09-10 02:56:00,69.1,60.5,29.83,NW,324,3.0,6.0,74,0.00,,,0.00,Wunderground v.1.15,2013-09-10 07:56:00,
2013-09-10 03:02:00,69.1,60.5,29.83,NW,322,4.0,4.0,74,0.00,,,0.00,Wunderground v.1.15,2013-09-10 08:02:00,
2013-09-10 03:07:00,69.0,60.4,29.83,NW,317,4.0,6.0,74,0.00,,,0.00,Wunderground v.1.15,2013-09-10 08:07:00,
2013-09-10 03:12:00,69.3,60.3,29.84,NW,317,3.0,3.0,73,0.00,,,0.00,Wunderground v.1.15,2013-09-10 08:12:00,
2013-09-10 03:18:00,69.5,60.5,29.84,NW,313,2.0,4.0,73,0.00,,,0.00,Wunderground v.1.15,2013-09-10 08:18:00,
2013-09-10 03:23:00,69.9,60.5,29.84,NNE,13,3.0,6.0,72,0.00,,,0.00,Wunderground v.1.15,2013-09-10 08:23:00,
2013-09-10 03:29:00,70.2,60.7,29.84,North,355,4.0,9.0,72,0.00,,,0.00,Wunderground v.1.15,2013-09-10 08:29:00,
2013-09-10 03:34:00,70.3,60.4,29.84,North,351,4.0,6.0,71,0.00,,,0.00,Wunderground v.1.15,2013-09-10 08:34:00,
2013-09-10 03:40:00,70.5,60.2,29.84,North,355,4.0,6.0,70,0.00,,,0.00,Wunderground v.1.15,2013-09-10 08:40:00,
2013-09-10 03:45:00,70.5,60.2,29.84,NNE,33,4.0,6.0,70,0.00,,,0.00,Wunderground v.1.15,2013-09-10 08:45:00,
2013-09-10 03:50:00,70.3,60.4,29.85,North,355,3.0,3.0,71,0.00,,,0.00,Wunderground v.1.15,2013-09-10 08:50:00,
2013-09-10 03:56:00,70.1,60.7,29.85,NNW,333,2.0,3.0,72,0.00,,,0.00,Wunderground v.1.15,2013-09-10 08:56:00,
2013-09-10 04:01:00,69.8,60.8,29.85,NNW,331,3.0,4.0,73,0.00,,,0.00,Wunderground v.1.15,2013-09-10 09:01:00,
2013-09-10 04:07:00,69.4,60.8,29.86,North,349,3.0,4.0,74,0.00,,,0.00,Wunderground v.1.15,2013-09-10 09:07:00,
2013-09-10 04:12:00,69.2,60.9,29.85,North,11,2.0,7.0,75,0.00,,,0.00,Wunderground v.1.15,2013-09-10 09:12:00,
2013-09-10 04:17:00,68.9,61.0,29.85,NNE,27,4.0,10.0,76,0.00,,,0.00,Wunderground v.1.15,2013-09-10 09:17:00,
2013-09-10 04:23:00,68.6,60.7,29.85,North,360,6.0,9.0,76,0.00,,,0.00,Wunderground v.1.15,2013-09-10 09:23:00,
2013-09-10 04:28:00,68.4,60.9,29.85,NNE,15,5.0,9.0,77,0.00,,,0.00,Wunderground v.1.15,2013-09-10 09:28:00,
2013-09-10 04:34:00,68.2,60.7,29.85,North,9,4.0,5.0,77,0.00,,,0.00,Wunderground v.1.15,2013-09-10 09:34:00,
2013-09-10 04:40:00,68.1,60.6,29.85,North,5,4.0,4.0,77,0.00,,,0.00,Wunderground v.1.15,2013-09-10 09:40:00,
2013-09-10 04:46:00,68.1,60.6,29.85,North,5,5.0,8.0,77,0.00,,,0.00,Wunderground v.1.15,2013-09-10 09:46:00,
2013-09-10 04:51:00,68.2,60.3,29.85,North,360,5.0,6.0,76,0.00,,,0.00,Wunderground v.1.15,2013-09-10 09:51:00,
2013-09-10 04:56:00,68.2,60.3,29.86,NNE,17,6.0,9.0,76,0.00,,,0.00,Wunderground v.1.15,2013-09-10 09:56:00,
2013-09-10 05:02:00,68.2,60.3,29.85,North,10,7.0,8.0,76,0.00,,,0.00,Wunderground v.1.15,2013-09-10 10:02:00,
2013-09-10 05:07:00,68.3,60.4,29.85,NNE,31,6.0,8.0,76,0.00,,,0.00,Wunderground v.1.15,2013-09-10 10:07:00,
2013-09-10 05:13:00,68.3,60.1,29.85,NNE,26,7.0,12.0,75,0.00,,,0.00,Wunderground v.1.15,2013-09-10 10:13:00,
2013-09-10 05:18:00,68.4,60.2,29.85,NNE,20,8.0,12.0,75,0.00,,,0.00,Wunderground v.1.15,2013-09-10 10:18:00,
2013-09-10 05:23:00,68.5,60.3,29.85,North,11,7.0,10.0,75,0.00,,,0.00,Wunderground v.1.15,2013-09-10 10:23:00,
2013-09-10 05:28:00,68.6,60.4,29.85,NNE,13,7.0,10.0,75,0.00,,,0.00,Wunderground v.1.15,2013-09-10 10:28:00,
2013-09-10 05:34:00,68.8,60.2,29.85,NE,37,8.0,11.0,74,0.00,,,0.00,Wunderground v.1.15,2013-09-10 10:34:00,
2013-09-10 05:39:00,68.8,60.2,29.86,NNE,17,8.0,12.0,74,0.00,,,0.00,Wunderground v.1.15,2013-09-10 10:39:00,
2013-09-10 05:45:00,68.9,60.3,29.85,NE,38,7.0,9.0,74,0.00,,,0.00,Wunderground v.1.15,2013-09-10 10:45:00,
2013-09-10 05:50:00,69.0,60.0,29.85,NE,40,6.0,8.0,73,0.00,,,0.00,Wunderground v.1.15,2013-09-10 10:50:00,
2013-09-10 05:55:00,69.1,60.1,29.85,NE,34,7.0,10.0,73,0.00,,,0.00,Wunderground v.1.15,2013-09-10 10:55:00,
2013-09-10 06:01:00,69.1,59.7,29.85,NE,44,7.0,11.0,72,0.00,,,0.00,Wunderground v.1.15,2013-09-10 11:01:00,
2013-09-10 06:06:00,69.2,59.4,29.86,NE,38,6.0,11.0,71,0.00,,,0.00,Wunderground v.1.15,2013-09-10 11:06:00,
2013-09-10 06:11:00,69.2,59.0,29.86,NE,49,5.0,11.0,70,0.00,,,0.00,Wunderground v.1.15,2013-09-10 11:11:00,
2013-09-10 06:17:00,69.4,58.8,29.86,NE,49,6.0,11.0,69,0.00,,,0.00,Wunderground v.1.15,2013-09-10 11:17:00,
2013-09-10 06:22:00,69.3,58.7,29.87,NE,45,6.0,7.0,69,0.00,,,0.00,Wunderground v.1.15,2013-09-10 11:22:00,
2013-09-10 06:28:00,69.2,59.0,29.87,NE,44,6.0,8.0,70,0.00,,,0.00,Wunderground v.1.15,2013-09-10 11:28:00,
2013-09-10 06:33:00,69.1,58.9,29.87,NNE,26,5.0,6.0,70,0.00,,,0.00,Wunderground v.1.15,2013-09-10 11:33:00,
2013-09-10 06:39:00,68.9,59.1,29.88,NE,38,4.0,7.0,71,0.00,,,0.00,Wunderground v.1.15,2013-09-10 11:39:00,
2013-09-10 06:44:00,68.7,59.3,29.88,NNE,28,5.0,7.0,72,0.00,,,0.00,Wunderground v.1.15,2013-09-10 11:44:00,
2013-09-10 06:50:00,68.6,59.2,29.88,NE,42,5.0,5.0,72,0.00,,,0.00,Wunderground v.1.15,2013-09-10 11:50:00,
2013-09-10 06:55:00,68.4,59.0,29.88,NE,42,4.0,5.0,72,0.00,,,0.00,Wunderground v.1.15,2013-09-10 11:55:00,
2013-09-10 07:00:00,68.1,59.1,29.88,NNE,28,4.0,4.0,73,0.00,,,0.00,Wunderground v.1.15,2013-09-10 12:00:00,
2013-09-10 07:05:00,67.9,58.9,29.88,NNE,24,3.0,8.0,73,0.00,,,0.00,Wunderground v.1.15,2013-09-10 12:05:00,
2013-09-10 07:11:00,67.8,58.8,29.88,NNE,29,4.0,4.0,73,0.00,,,0.00,Wunderground v.1.15,2013-09-10 12:11:00,
2013-09-10 07:16:00,67.6,58.6,29.89,NE,37,4.0,4.0,73,0.00,,,0.00,Wunderground v.1.15,2013-09-10 12:16:00,
2013-09-10 07:22:00,67.5,58.5,29.89,NE,34,4.0,6.0,73,0.00,,,0.00,Wunderground v.1.15,2013-09-10 12:22:00,
2013-09-10 07:28:00,67.4,58.1,29.89,NE,42,3.0,6.0,72,0.00,,,0.00,Wunderground v.1.15,2013-09-10 12:28:00,
2013-09-10 07:34:00,67.2,58.2,29.89,NE,48,3.0,3.0,73,0.00,,,0.00,Wunderground v.1.15,2013-09-10 12:34:00,
2013-09-10 07:39:00,67.1,58.2,29.89,ENE,61,2.0,5.0,73,0.00,,,0.00,Wunderground v.1.15,2013-09-10 12:39:00,
2013-09-10 07:44:00,67.0,58.1,29.90,ENE,59,3.0,4.0,73,0.00,,,0.00,Wunderground v.1.15,2013-09-10 12:44:00,
2013-09-10 07:50:00,67.0,58.1,29.90,NE,50,3.0,4.0,73,0.00,,,0.00,Wunderground v.1.15,2013-09-10 12:50:00,
2013-09-10 07:55:00,67.1,58.5,29.90,NE,50,3.0,5.0,74,0.00,,,0.00,Wunderground v.1.15,2013-09-10 12:55:00,
2013-09-10 08:00:00,67.1,58.5,29.90,NE,54,2.0,4.0,74,0.00,,,0.00,Wunderground v.1.15,2013-09-10 13:00:00,
2013-09-10 08:06:00,67.0,58.8,29.91,NE,54,2.0,4.0,75,0.00,,,0.00,Wunderground v.1.15,2013-09-10 13:06:00,
2013-09-10 08:11:00,67.0,58.8,29.91,NE,54,2.0,2.0,75,0.00,,,0.00,Wunderground v.1.15,2013-09-10 13:11:00,
2013-09-10 08:16:00,67.1,58.9,29.91,NE,54,2.0,3.0,75,0.00,,,0.00,Wunderground v.1.15,2013-09-10 13:16:00,
2013-09-10 08:21:00,67.3,59.5,29.91,NE,54,1.0,2.0,76,0.00,,,0.00,Wunderground v.1.15,2013-09-10 13:21:00,
2013-09-10 08:27:00,67.7,59.5,29.91,NE,54,2.0,3.0,75,0.00,,,0.00,Wunderground v.1.15,2013-09-10 13:27:00,
2013-09-10 08:32:00,67.9,60.1,29.92,NE,53,2.0,3.0,76,0.00,,,0.00,Wunderground v.1.15,2013-09-10 13:32:00,
2013-09-10 08:38:00,68.1,60.2,29.92,ENE,59,2.0,4.0,76,0.00,,,0.00,Wunderground v.1.15,2013-09-10 13:38:00,
2013-09-10 08:43:00,68.5,60.6,29.92,ENE,60,2.0,2.0,76,0.00,,,0.00,Wunderground v.1.15,2013-09-10 13:43:00,
2013-09-10 08:49:00,69.1,60.8,29.92,ENE,59,2.0,7.0,75,0.00,,,0.00,Wunderground v.1.15,2013-09-10 13:49:00,
2013-09-10 08:54:00,69.3,61.0,29.92,NE,37,3.0,6.0,75,0.00,,,0.00,Wunderground v.1.15,2013-09-10 13:54:00,
2013-09-10 08:59:00,69.8,61.1,29.92,NE,38,4.0,6.0,74,0.00,,,0.00,Wunderground v.1.15,2013-09-10 13:59:00,
2013-09-10 09:05:00,70.2,61.5,29.92,NE,38,3.0,4.0,74,0.00,,,0.00,Wunderground v.1.15,2013-09-10 14:05:00,
2013-09-10 09:10:00,70.9,61.4,29.92,NE,47,3.0,4.0,72,0.00,,,0.00,Wunderground v.1.15,2013-09-10 14:10:00,
2013-09-10 09:15:00,71.4,61.5,29.93,ENE,65,3.0,5.0,71,0.00,,,0.00,Wunderground v.1.15,2013-09-10 14:15:00,
2013-09-10 09:21:00,71.7,61.4,29.93,East,81,4.0,4.0,70,0.00,,,0.00,Wunderground v.1.15,2013-09-10 14:21:00,
2013-09-10 09:26:00,72.1,61.4,29.93,East,82,5.0,5.0,69,0.00,,,0.00,Wunderground v.1.15,2013-09-10 14:26:00,
2013-09-10 09:31:00,72.4,61.7,29.93,East,79,4.0,5.0,69,0.00,,,0.00,Wunderground v.1.15,2013-09-10 14:31:00,
2013-09-10 09:37:00,72.4,61.7,29.93,NE,36,6.0,9.0,69,0.00,,,0.00,Wunderground v.1.15,2013-09-10 14:37:00,
2013-09-10 09:42:00,72.1,61.4,29.93,ENE,57,7.0,8.0,69,0.00,,,0.00,Wunderground v.1.15,2013-09-10 14:42:00,
2013-09-10 09:48:00,72.4,62.1,29.93,NE,54,5.0,8.0,70,0.00,,,0.00,Wunderground v.1.15,2013-09-10 14:48:00,
2013-09-10 09:53:00,72.8,62.0,29.94,NE,50,5.0,8.0,69,0.00,,,0.00,Wunderground v.1.15,2013-09-10 14:53:00,
2013-09-10 09:59:00,73.1,62.3,29.94,ENE,71,5.0,8.0,69,0.00,,,0.00,Wunderground v.1.15,2013-09-10 14:59:00,
2013-09-10 10:04:00,73.3,62.5,29.94,NE,53,5.0,8.0,69,0.00,,,0.00,Wunderground v.1.15,2013-09-10 15:04:00,
2013-09-10 10:09:00,73.5,62.7,29.95,NE,50,5.0,8.0,69,0.00,,,0.00,Wunderground v.1.15,2013-09-10 15:09:00,
2013-09-10 10:15:00,74.0,62.8,29.95,NE,40,5.0,6.0,68,0.00,,,0.00,Wunderground v.1.15,2013-09-10 15:15:00,
2013-09-10 10:20:00,74.3,62.6,29.95,NE,40,4.0,4.0,67,0.00,,,0.00,Wunderground v.1.15,2013-09-10 15:20:00,
2013-09-10 10:26:00,74.6,62.9,29.95,ENE,71,4.0,8.0,67,0.00,,,0.00,Wunderground v.1.15,2013-09-10 15:26:00,
2013-09-10 10:31:00,74.5,62.4,29.96,NE,55,5.0,6.0,66,0.00,,,0.00,Wunderground v.1.15,2013-09-10 15:31:00,
2013-09-10 10:37:00,74.7,62.6,29.96,ENE,60,5.0,7.0,66,0.00,,,0.00,Wunderground v.1.15,2013-09-10 15:37:00,
2013-09-10 10:42:00,74.9,62.8,29.96,ENE,60,5.0,5.0,66,0.00,,,0.00,Wunderground v.1.15,2013-09-10 15:42:00,
2013-09-10 10:48:00,75.4,62.8,29.96,NE,51,5.0,7.0,65,0.00,,,0.00,Wunderground v.1.15,2013-09-10 15:48:00,
2013-09-10 10:53:00,75.8,62.8,29.96,NNE,32,4.0,7.0,64,0.00,,,0.00,Wunderground v.1.15,2013-09-10 15:53:00,
2013-09-10 10:58:00,75.8,62.3,29.96,NE,53,5.0,7.0,63,0.00,,,0.00,Wunderground v.1.15,2013-09-10 15:58:00,
2013-09-10 11:04:00,76.0,62.0,29.96,ENE,59,6.0,8.0,62,0.00,,,0.00,Wunderground v.1.15,2013-09-10 16:04:00,
2013-09-10 11:09:00,76.2,61.8,29.97,NE,35,6.0,8.0,61,0.00,,,0.00,Wunderground v.1.15,2013-09-10 16:09:00,
2013-09-10 11:15:00,76.8,61.9,29.96,NNE,24,5.0,8.0,60,0.00,,,0.00,Wunderground v.1.15,2013-09-10 16:15:00,
2013-09-10 11:20:00,76.9,62.0,29.96,NE,42,6.0,7.0,60,0.00,,,0.00,Wunderground v.1.15,2013-09-10 16:20:00,
2013-09-10 11:25:00,77.2,62.2,29.96,ENE,69,5.0,7.0,60,0.00,,,0.00,Wunderground v.1.15,2013-09-10 16:25:00,
2013-09-10 11:31:00,77.4,61.9,29.96,NE,53,5.0,7.0,59,0.00,,,0.00,Wunderground v.1.15,2013-09-10 16:31:00,
2013-09-10 11:36:00,78.0,62.0,29.96,NE,39,6.0,10.0,58,0.00,,,0.00,Wunderground v.1.15,2013-09-10 16:36:00,
2013-09-10 11:41:00,78.6,62.1,29.96,NE,35,6.0,6.0,57,0.00,,,0.00,Wunderground v.1.15,2013-09-10 16:41:00,
2013-09-10 11:47:00,78.9,62.9,29.96,NE,35,5.0,7.0,58,0.00,,,0.00,Wunderground v.1.15,2013-09-10 16:47:00,
2013-09-10 11:52:00,79.3,62.2,29.96,NE,35,4.0,9.0,56,0.00,,,0.00,Wunderground v.1.15,2013-09-10 16:52:00,
2013-09-10 11:58:00,79.1,62.1,29.96,NE,46,5.0,10.0,56,0.00,,,0.00,Wunderground v.1.15,2013-09-10 16:58:00,
2013-09-10 12:04:00,79.5,62.4,29.96,NNE,13,5.0,7.0,56,0.00,,,0.00,Wunderground v.1.15,2013-09-10 17:04:00,
2013-09-10 12:10:00,79.7,63.1,29.96,NNE,23,4.0,10.0,57,0.00,,,0.00,Wunderground v.1.15,2013-09-10 17:10:00,
2013-09-10 12:15:00,79.5,61.9,29.96,NE,42,5.0,10.0,55,0.00,,,0.00,Wunderground v.1.15,2013-09-10 17:15:00,
2013-09-10 12:20:00,79.4,62.3,29.96,NE,44,7.0,8.0,56,0.00,,,0.00,Wunderground v.1.15,2013-09-10 17:20:00,
2013-09-10 12:26:00,79.7,62.1,29.96,NE,53,6.0,8.0,55,0.00,,,0.00,Wunderground v.1.15,2013-09-10 17:26:00,
2013-09-10 12:31:00,79.7,62.6,29.96,NNE,30,6.0,8.0,56,0.00,,,0.00,Wunderground v.1.15,2013-09-10 17:31:00,
2013-09-10 12:37:00,80.3,62.7,29.96,North,11,5.0,8.0,55,0.00,,,0.00,Wunderground v.1.15,2013-09-10 17:37:00,
2013-09-10 12:42:00,80.3,62.1,29.96,NNE,24,5.0,9.0,54,0.00,,,0.00,Wunderground v.1.15,2013-09-10 17:42:00,
2013-09-10 12:47:00,80.4,62.8,29.96,NNE,15,5.0,9.0,55,0.00,,,0.00,Wunderground v.1.15,2013-09-10 17:47:00,
2013-09-10 12:53:00,80.7,62.5,29.96,NE,44,5.0,8.0,54,0.00,,,0.00,Wunderground v.1.15,2013-09-10 17:53:00,
2013-09-10 12:58:00,80.5,62.3,29.96,NNE,25,6.0,9.0,54,0.00,,,0.00,Wunderground v.1.15,2013-09-10 17:58:00,
2013-09-10 13:04:00,80.9,63.2,29.96,North,360,5.0,6.0,55,0.00,,,0.00,Wunderground v.1.15,2013-09-10 18:04:00,
2013-09-10 13:09:00,81.1,62.3,29.96,NNW,347,5.0,10.0,53,0.00,,,0.00,Wunderground v.1.15,2013-09-10 18:09:00,
2013-09-10 13:15:00,80.8,62.6,29.96,North,355,7.0,8.0,54,0.00,,,0.00,Wunderground v.1.15,2013-09-10 18:15:00,
2013-09-10 13:20:00,81.1,62.9,29.96,NNW,329,6.0,6.0,54,0.00,,,0.00,Wunderground v.1.15,2013-09-10 18:20:00,
2013-09-10 13:25:00,81.2,63.5,29.96,NNE,12,5.0,11.0,55,0.00,,,0.00,Wunderground v.1.15,2013-09-10 18:25:00,
2013-09-10 13:31:00,81.5,62.7,29.96,NNE,12,5.0,7.0,53,0.00,,,0.00,Wunderground v.1.15,2013-09-10 18:31:00,
2013-09-10 13:36:00,81.7,63.4,29.96,North,351,5.0,7.0,54,0.00,,,0.00,Wunderground v.1.15,2013-09-10 18:36:00,
2013-09-10 13:41:00,82.1,63.3,29.96,North,360,5.0,6.0,53,0.00,,,0.00,Wunderground v.1.15,2013-09-10 18:41:00,
2013-09-10 13:47:00,82.3,64.0,29.96,North,5,5.0,7.0,54,0.00,,,0.00,Wunderground v.1.15,2013-09-10 18:47:00,
2013-09-10 13:52:00,82.6,63.7,29.96,NE,40,4.0,10.0,53,0.00,,,0.00,Wunderground v.1.15,2013-09-10 18:52:00,
2013-09-10 13:58:00,82.7,62.7,29.96,NE,44,4.0,10.0,51,0.00,,,0.00,Wunderground v.1.15,2013-09-10 18:58:00,
2013-09-10 14:04:00,82.6,62.6,29.96,NE,40,4.0,6.0,51,0.00,,,0.00,Wunderground v.1.15,2013-09-10 19:04:00,
2013-09-10 14:10:00,82.7,63.8,29.95,NNE,16,5.0,9.0,53,0.00,,,0.00,Wunderground v.1.15,2013-09-10 19:10:00,
2013-09-10 14:15:00,83.4,63.4,29.95,NE,40,5.0,9.0,51,0.00,,,0.00,Wunderground v.1.15,2013-09-10 19:15:00,
2013-09-10 14:20:00,83.6,63.6,29.96,NNE,19,5.0,5.0,51,0.00,,,0.00,Wunderground v.1.15,2013-09-10 19:20:00,
2013-09-10 14:25:00,83.4,63.4,29.95,NNW,329,5.0,8.0,51,0.00,,,0.00,Wunderground v.1.15,2013-09-10 19:25:00,
2013-09-10 14:31:00,83.2,63.2,29.95,North,5,5.0,5.0,51,0.00,,,0.00,Wunderground v.1.15,2013-09-10 19:31:00,
2013-09-10 14:37:00,83.7,63.7,29.95,NNE,26,4.0,7.0,51,0.00,,,0.00,Wunderground v.1.15,2013-09-10 19:37:00,
2013-09-10 17:47:00,85.3,64.0,29.93,NE,39,5.0,5.0,49,0.00,,,0.00,Wunderground v.1.15,2013-09-10 22:47:00,
2013-09-10 17:52:00,85.2,63.9,29.93,NE,36,6.0,9.0,49,0.00,,,0.00,Wunderground v.1.15,2013-09-10 22:52:00,
2013-09-10 17:58:00,84.7,62.8,29.93,NNE,14,7.0,11.0,48,0.00,,,0.00,Wunderground v.1.15,2013-09-10 22:58:00,
2013-09-10 18:03:00,84.3,63.6,29.93,North,11,6.0,9.0,50,0.00,,,0.00,Wunderground v.1.15,2013-09-10 23:03:00,
2013-09-10 18:09:00,84.4,63.7,29.93,NNE,19,5.0,9.0,50,0.00,,,0.00,Wunderground v.1.15,2013-09-10 23:09:00,
2013-09-10 18:14:00,84.0,63.4,29.94,North,5,6.0,11.0,50,0.00,,,0.00,Wunderground v.1.15,2013-09-10 23:14:00,
2013-09-10 18:19:00,83.7,62.5,29.94,NNE,14,6.0,11.0,49,0.00,,,0.00,Wunderground v.1.15,2013-09-10 23:19:00,
2013-09-10 18:25:00,83.3,62.1,29.94,North,5,7.0,9.0,49,0.00,,,0.00,Wunderground v.1.15,2013-09-10 23:25:00,
2013-09-10 18:30:00,83.1,63.1,29.94,North,9,7.0,7.0,51,0.00,,,0.00,Wunderground v.1.15,2013-09-10 23:30:00,
2013-09-10 18:35:00,83.2,63.2,29.94,North,11,6.0,9.0,51,0.00,,,0.00,Wunderground v.1.15,2013-09-10 23:35:00,